Regional Weather Roundup
Issued by NWS

Home | Current Version | Previous Version | Graphics & Text | Print | Product List | Glossary On
Versions: 1 2 3 4 5 6 7 8 9 10 11 12 13 14 15 16 17 18 19 20 21 22 23 24 25 26 27 28 29 30 31 32 33 34 35 36 37 38 39 40 41 42 43 44 45 46 47 48 49 50
000
ASUS43 KMKX 211011
RWRWI

WISCONSIN REGIONAL WEATHER ROUNDUP
NATIONAL WEATHER SERVICE MILWAUKEE/SULLIVAN WI
400 AM CST SUN DEC 21 2014

NOTE: "FAIR" INDICATES FEW OR NO CLOUDS BELOW 12,000 FEET WITH NO
SIGNIFICANT WEATHER AND/OR OBSTRUCTIONS TO VISIBILITY.

WIZ001-002-006>008-014>016-023>028-211100-
NORTHWEST WISCONSIN

CITY           SKY/WX    TMP DP  RH WIND       PRES   REMARKS
SUPERIOR ARPT  CLOUDY    32  28  86 SW9       30.01F WCI  24
ASHLAND        CLOUDY    31  26  82 S9G17     30.04F WCI  23
HAYWARD        CLOUDY    30  26  85 S10       30.02F FOG     WCI  21
SIREN          CLOUDY    31  27  84 SE6       30.00F WCI  26
CUMBERLAND     CLOUDY    30  28  93 SE9       30.01F WCI  22
RICE LAKE      CLOUDY    31  28  91 SE10      30.04F FOG     WCI  22
CHETEK         CLOUDY    30  28  92 SE8       30.04F FOG     WCI  22
LADYSMITH      CLOUDY    30  28  93 S7        30.07F FOG     WCI  23
EAU CLAIRE     CLOUDY    31  27  85 S6        30.05F WCI  25
MENOMONIE      CLOUDY    31  30  95 SE8       30.05F FOG     WCI  24
NEW RICHMOND   CLOUDY    31  30  95 SE8       30.01F FOG     WCI  24
OSCEOLA        CLOUDY    32  30  92 SE12      30.02F WCI  23
$$

WIZ003>005-009-010-017-018-211100-
NORTH CENTRAL WISCONSIN

CITY           SKY/WX    TMP DP  RH WIND       PRES   REMARKS
MANITOWISH WTR CLOUDY    27  27 100 S8        30.03F FOG     WCI  19
ARBOR VITAE    CLOUDY    29  28  93 S8        30.04F FOG     WCI  21
WOODRUFF       CLOUDY    29  28  93 S8        30.04F FOG     WCI  21
RHINELANDER    CLOUDY    26  25  96 S6        30.07F FOG     WCI  19
EAGLE RIVER    CLOUDY    27  27 100 S7        30.06S FOG     WCI  19
LAND O LAKES   CLOUDY    28  27  97 S7        30.06S FOG     WCI  20
PHILLIPS       CLOUDY    28  26  94 S7        30.04F FOG     WCI  21
TOMAHAWK       CLOUDY    27  26  94 CALM      30.07F FOG
MEDFORD        CLOUDY    28  27  96 S9        30.07F FOG     WCI  19
MERRILL        CLOUDY    28  27  96 S3        30.09F FOG
$$

WIZ029-030-035-036-043>047-211100-
CENTRAL WISCONSIN

CITY           SKY/WX    TMP DP  RH WIND       PRES   REMARKS
WAUSAU         CLOUDY    28  26  92 S7        30.09F FOG     WCI  21
MOSINEE        CLOUDY    28  28 100 S8        30.11F FOG     WCI  20
MARSHFIELD     CLOUDY    29  26  89 S8        30.09F FOG     WCI  21
STEVENS POINT  CLOUDY    27  26  95 S3        30.12F FOG
WAUPACA        CLOUDY    31  28  88 SE5       30.15F FOG     WCI  26
WAUTOMA        CLOUDY    30  28  93 S3        30.15F FOG
WISC RAPIDS    CLOUDY    29  25  85 S5        30.13F FOG     WCI  24
CAMP DOUGLAS   CLOUDY    30  30 100 SE6       30.11F WCI  24
$$

WIZ011>013-019>022-031-037>040-048>050-211100-
NORTHEAST WISCONSIN

CITY           SKY/WX    TMP DP  RH WIND       PRES   REMARKS
ANTIGO         CLOUDY    26  26 100 S7        30.09F FOG     WCI  18
SHAWANO        CLOUDY    31  27  86 S3        30.16F FOG
OCONTO         CLOUDY    30  28  94 CALM      30.17F
STURGEON BAY   CLOUDY    28  25  86 S5        30.19F WCI  23
GREEN BAY      CLOUDY    30  27  88 S7        30.17F FOG     WCI  23
MANITOWOC      CLOUDY    31  28  89 S3        30.19F
APPLETON       CLOUDY    30  28  93 SE6       30.15F FOG     WCI  24
CLINTONVILLE   CLOUDY    30  28  93 S5        30.15F FOG     WCI  25
OSHKOSH        CLOUDY    30  26  85 S6        30.16F FOG     WCI  24
$$

WIZ032>034-041-042-053>061-211100-
SOUTHWEST WISCONSIN

CITY           SKY/WX    TMP DP  RH WIND       PRES   REMARKS
LA CROSSE      CLOUDY    33  29  85 SE7       30.09F FOG     WCI  27
SPARTA         CLOUDY    31  28  90 SE7       30.10F FOG     WCI  24
VIROQUA        CLOUDY    30  30 100 SE8       30.07F VSB 1/2 WCI  22
BOSCOBEL       CLOUDY    33  30  88 CALM      30.12F FOG
PRAIRIE DU CHI CLOUDY    32  31  98 SE5       30.10F FOG     WCI  27
PLATTEVILLE    CLOUDY    32  32  99 CALM      30.12F VSB 1/4
$$

WIZ056-057-062-063-064-067-068-211100-
SOUTH CENTRAL WISCONSIN

CITY           SKY/WX    TMP DP  RH WIND       PRES   REMARKS
REEDSBURG      LGT RAIN  30  28  92 SE3       30.12F
BARABOO/DELLS  CLOUDY    30  28  90 S3        30.12F FOG
LONE ROCK      CLOUDY    35  29  78 SE6       30.13F HAZE    WCI  30
MINERAL POINT  FOG       32  32 100 SE7       30.11F VSB 1/2 WCI  26
MADISON        CLOUDY    31  28  89 SE8       30.14F FOG     WCI  23
MIDDLETON      CLOUDY    32  31  95 S6        30.14F WCI  27
WATERTOWN      CLOUDY    31  29  95 SE6       30.16F WCI  25
MONROE         MIX PCPN  32  32 100 S8        30.13F WCI  25
JANESVILLE     CLOUDY    32  32 100 SE6       30.17F FOG     WCI  26
$$

WIZ051-052-058>065-066-070>072-211100-
SOUTHEAST WISCONSIN

CITY           SKY/WX    TMP DP  RH WIND       PRES   REMARKS
MILWAUKEE      CLOUDY    32  26  78 S6        30.20F WCI  26
WAUKESHA       CLOUDY    30  27  86 S7        30.19F WCI  23
MILWAUKEE/TIMM CLOUDY    32  27  80 S5        30.20F WCI  27
RACINE         CLOUDY    32  26  78 S6        30.22F WCI  26
BURLINGTON     CLOUDY    30  27  88 S5        30.19F WCI  25
KENOSHA        CLOUDY    32  27  81 S7        30.20F WCI  26
FOND DU LAC    CLOUDY    31  26  82 S7        30.16F WCI  24
SHEBOYGAN      CLOUDY    30  26  85 S3        30.19F
WEST BEND      CLOUDY    30  27  86 CALM      30.18F
JUNEAU         CLOUDY    30  28  91 SE8       30.17F FOG     WCI  22
$$

LSZ147-162-211100-
LAKE SUPERIOR

STATION/POSITION TIME  TEMP    WIND        PRES    WAVE
                       AIR SEA DIR/SP/G            HT/PER
                 (UTC) (F)     (DEG/KT/KT) (MB)    (FT/S)
DEVILS ISLAND    1000   32     190/  8/ 10 1017.9F
PORT WING        0940   32     180/  9/ 12 1016.9F
SAXON HARBOR     0900   33     190/  7/ 15 1017.9
$$

LMZ867-665-643>646-211100-
LAKE MICHIGAN

STATION/POSITION TIME  TEMP    WIND        PRES    WAVE
                       AIR SEA DIR/SP/G            HT/PER
                 (UTC) (F)     (DEG/KT/KT) (MB)    (FT/S)
CHAMBERS ISLAND  0900   29     170/  2/  3 1022.7F
NORTHPORT PIER   0936   30     180/  2/  4 1022.4F
SISTER BAY       0943             CALM       N/A
ALGOMA LAKESHORE 0914          230/  8/  9   N/A
KEWAUNEE LAKESHO 0912   31     180/  4/  6 1021.8F
SHEBOYGAN LAKESH 1000   32 34  190/  8/  9 1023.3F
PORT WASHINGTON  0940   33     210/  4/  6 1023.4F
MILWAUKEE LAKESH 0900   33     180/  7/  8   N/A
KENOSHA   LAKESH 1000   33     190/  5/  7 1023.0F
$$

TC  - TEMPERATURE IN CELSIUS
VSB - VISIBILITY IN STATUTE MILES
WCI - WIND CHILL INDEX
HX  - HEAT INDEX



USA.gov is the U.S. government's official web portal to all federal, state and local government web resources and services.